Ketchikan, AK

3:45 PM AKST on December 16, 2017 (GMT -0900)
Ketchikan International

Weather History for PAKT - October, 2011

Change the Weather History Date:

Sunday, October 23, 2011

  Actual Average Record
Temperature  
Mean Temperature 44 °F -  
Max Temperature 48 °F 51 °F 60 °F (1965)
Min Temperature 42 °F 40 °F 30 °F (2004)
Degree Days  
Heating Degree Days 21    
Moisture  
Dew Point 42 °F    
Average Humidity 91    
Maximum Humidity 100    
Minimum Humidity 86    
Precipitation  
Precipitation 0.78 in - - ()
Sea Level Pressure  
Sea Level Pressure 29.92 in    
Wind  
Wind Speed 6 mph (SE)    
Max Wind Speed 13 mph    
Max Gust Speed -    
Visibility 9 miles    
Events Rain    
Averages and records for this station are not official NWS values.
T = Trace of Precipitation, MM = Missing Value Source: NWS Daily Summary

Daily Weather History Graph

Daily Weather History Graph

Search for Another Location

Airport or City:

Trip Planner

Search our weather history database for the weather conditions in past years. The results will help you decide how hot, cold, wet, or windy it might be!

Date:

Astronomy

Oct. 23, 2011 Rise Set
Actual Time 7:32 AM AKDT 5:28 PM AKDT
Civil Twilight 6:55 AM AKDT 6:06 PM AKDT
Nautical Twilight 6:12 AM AKDT 6:48 PM AKDT
Astronomical Twilight 5:30 AM AKDT 7:30 PM AKDT
Moon 3:15 AM AKDT (10/23) 3:48 PM AKDT (10/23)
Length of Visible Light 11h 10m
Length of Day
9h 55m
Waning Crescent, 13% of the Moon is Illuminated
Oct 23
Waning Crescent
Oct 26
New
Nov 2
First Quarter
Nov 10
Full
Nov 18
Last Quarter

Hourly Weather History & Observations

Time (AKDT) Temp. Windchill Dew Point Humidity Pressure Visibility Wind Dir Wind Speed Gust Speed Precip Events Conditions
12:20 AM 44.6 °F 43.1 °F 42.8 °F 93% 29.86 in 9.0 mi South 3.5 mph - 0.02 in Rain Light Rain
12:42 AM 44.6 °F 43.1 °F 42.8 °F 93% 29.86 in 4.0 mi South 3.5 mph - 0.08 in Rain Rain
12:53 AM 45.0 °F 42.6 °F 42.1 °F 90% 29.87 in 10.0 mi SE 4.6 mph - 0.08 in Rain Light Rain
1:15 AM 44.6 °F 42.2 °F 41.0 °F 87% 29.87 in 4.0 mi SSE 4.6 mph - 0.08 in Rain Rain
1:53 AM 44.1 °F 39.5 °F 42.1 °F 93% 29.88 in 5.0 mi ESE 8.1 mph - 0.13 in Rain Rain
2:53 AM 44.1 °F 41.5 °F 41.0 °F 89% 29.88 in 10.0 mi SSE 4.6 mph - 0.06 in Rain Light Rain
3:50 AM 44.6 °F 43.1 °F 42.8 °F 93% 29.87 in 10.0 mi SSE 3.5 mph - 0.03 in Rain Light Rain
3:53 AM 45.0 °F 42.6 °F 43.0 °F 93% 29.88 in 10.0 mi SE 4.6 mph - 0.03 in Rain Light Rain
4:30 AM 44.6 °F 41.4 °F 42.8 °F 93% 29.88 in 10.0 mi SE 5.8 mph - 0.03 in Rain Light Rain
4:53 AM 45.0 °F 41.8 °F 41.0 °F 86% 29.88 in 6.0 mi SE 5.8 mph - 0.09 in Rain Light Rain
5:53 AM 44.6 °F 40.7 °F 42.8 °F 93% 29.88 in 10.0 mi SSE 6.9 mph - N/A   Clear
6:06 AM 44.6 °F 40.7 °F 41.0 °F 87% 29.88 in 10.0 mi SSE 6.9 mph - N/A   Mostly Cloudy
6:53 AM 45.0 °F 40.6 °F 42.1 °F 90% 29.89 in 10.0 mi SSE 8.1 mph - N/A   Overcast
7:53 AM 45.0 °F 41.2 °F 43.0 °F 93% 29.89 in 10.0 mi SSE 6.9 mph - 0.02 in   Overcast
8:53 AM 44.1 °F 40.1 °F 41.0 °F 89% 29.90 in 5.0 mi SE 6.9 mph - 0.11 in Rain Light Rain
9:53 AM 46.0 °F 40.2 °F 42.1 °F 86% 29.91 in 10.0 mi SE 12.7 mph - 0.01 in Rain Light Rain
10:53 AM 46.0 °F 42.5 °F 43.0 °F 89% 29.92 in 5.0 mi SE 6.9 mph - 0.04 in Rain Light Rain
11:53 AM 46.9 °F - 43.0 °F 86% 29.92 in 10.0 mi SE 10.4 mph - 0.01 in Rain Light Rain
12:53 PM 46.0 °F 41.9 °F 43.0 °F 89% 29.92 in 7.0 mi ESE 8.1 mph - 0.06 in Rain Light Rain
1:53 PM 46.9 °F - 43.0 °F 86% 29.93 in 10.0 mi ESE 9.2 mph - 0.00 in   Overcast
2:53 PM 46.0 °F 44.8 °F 42.1 °F 86% 29.93 in 5.0 mi SE 3.5 mph - 0.04 in Rain Rain
3:53 PM 45.0 °F 40.1 °F 42.1 °F 90% 29.93 in 10.0 mi SE 9.2 mph - 0.02 in   Overcast
4:53 PM 45.0 °F 40.1 °F 42.1 °F 90% 29.93 in 10.0 mi SE 9.2 mph - 0.01 in Rain Light Rain
5:53 PM 45.0 °F 40.1 °F 41.0 °F 86% 29.94 in 10.0 mi SE 9.2 mph - 0.00 in Rain Light Rain
6:53 PM 44.1 °F 41.5 °F 42.1 °F 93% 29.94 in 8.0 mi SSE 4.6 mph - 0.03 in Rain Light Rain
7:53 PM 44.1 °F 39.5 °F 42.1 °F 93% 29.95 in 10.0 mi SE 8.1 mph - 0.00 in   Overcast
8:04 PM 44.6 °F 40.2 °F 42.8 °F 93% 29.95 in 10.0 mi SE 8.1 mph - N/A   Overcast
8:30 PM 44.6 °F 40.7 °F 41.0 °F 87% 29.95 in 10.0 mi SSE 6.9 mph - N/A   Overcast
8:53 PM 44.1 °F 41.5 °F 41.0 °F 89% 29.96 in 9.0 mi SSE 4.6 mph - 0.01 in Rain Light Rain
9:15 PM 44.6 °F 43.1 °F 41.0 °F 87% 29.95 in 10.0 mi SSE 3.5 mph - 0.02 in Rain Light Rain
9:46 PM 44.6 °F 40.7 °F 41.0 °F 87% 29.96 in 10.0 mi SSE 6.9 mph - 0.02 in   Overcast
9:53 PM 44.1 °F 38.6 °F 42.1 °F 93% 29.96 in 10.0 mi SE 10.4 mph - 0.02 in   Overcast
10:32 PM 44.6 °F 43.1 °F 42.8 °F 93% 29.96 in 10.0 mi South 3.5 mph - 0.00 in Rain Light Rain
10:53 PM 43.0 °F 40.3 °F 41.0 °F 93% 29.97 in 10.0 mi SSE 4.6 mph - 0.01 in Rain Light Rain
11:02 PM 42.8 °F 41.1 °F 41.0 °F 93% 29.97 in 10.0 mi SE 3.5 mph - 0.00 in   Overcast
11:23 PM 42.8 °F 41.1 °F 41.0 °F 93% 29.97 in 10.0 mi Variable 3.5 mph - 0.00 in   Overcast
11:40 PM 42.8 °F - 42.8 °F 100% 29.97 in 10.0 mi Calm Calm - 0.00 in   Overcast
11:53 PM 43.0 °F - 42.1 °F 97% 29.99 in 10.0 mi Calm Calm - 0.00 in   Overcast